Regional Weather Roundup
Issued by NWS

Home | Current Version | Previous Version | Text Only | Print | Product List | Glossary On
Versions: 1 2 3 4 5 6 7 8 9 10 11 12 13 14 15 16 17 18 19 20 21 22 23 24 25 26 27 28 29 30 31 32 33 34 35 36 37 38 39 40 41 42 43 44 45 46 47 48 49 50
000
ASUS43 KFSD 271910
RWRSD

WEATHER ROUNDUP FOR SOUTH DAKOTA
NATIONAL WEATHER SERVICE SIOUX FALLS SD
200 PM CDT THU JUL 27 2017

NOTE: "FAIR" INDICATES FEW OR NO CLOUDS BELOW 12,000 FEET WITH NO
SIGNIFICANT WEATHER AND/OR OBSTRUCTIONS TO VISIBILITY.


SDZ001>005-009-010-012>017-272000-
NORTHWEST AND NORTH CENTRAL SOUTH DAKOTA

CITY           SKY/WX    TMP DP  RH WIND       PRES   REMARKS
BUFFALO          N/A     84  50  30 SE28G39   29.98F
FAITH            N/A     86  52  30 SE16G23   30.09F
MOBRIDGE       SUNNY     84  62  47 SE9       30.08F
$$

SDZ012>016-024>037-041>051-057-063-072>074-272000-
SOUTHWEST AND SOUTH CENTRAL SOUTH DAKOTA

CITY           SKY/WX    TMP DP  RH WIND       PRES   REMARKS
RAPID CTY ARPT LGT RAIN  67  57  70 S18G24    30.16F
PIERRE         SUNNY     85  53  33 MISG      30.09F
CUSTER         LGT RAIN  58  56  93 E13       30.25F
ELLSWORTH AFB  CLOUDY    71  53  54 S24G31    30.13F
PHILIP         CLOUDY    85  51  31 S13       30.11S
PINE RIDGE     LGT RAIN  69  53  56 E14       30.17F
SPEARFISH      RAIN      84  61  45 S21G29    30.04F
WINNER           N/A     84  58  40 SW6       30.13F
$$

SDZ004>011-016>023-039-040-272000-
NORTHEAST SOUTH DAKOTA

CITY           SKY/WX    TMP DP  RH WIND       PRES   REMARKS
ABERDEEN       SUNNY     81  59  47 E7        30.12F
WATERTOWN      PTSUNNY   79  60  52 W5        30.13S
BROOKINGS      MOSUNNY   78  60  53 NE7       30.13F
SISSETON         N/A     82  60  47 E8        30.11F
$$

SDZ017-020-022-023-036>040-048>070-272000-
SOUTHEAST SOUTH DAKOTA

CITY           SKY/WX    TMP DP  RH WIND       PRES   REMARKS
SIOUX FALLS    MOSUNNY   82  64  54 VRB3      30.10F
HURON          SUNNY     81  60  48 VRB3      30.11F
CHAMBERLAIN    SUNNY     84  60  43 SE8       30.12F
MITCHELL       MOSUNNY   83  62  49 VRB5      30.11F
YANKTON        MOSUNNY   82  61  48 NE8       30.10F
$$

ABBREVIATIONS USED IN REMARKS
   TC - TEMPERATURE IN CELSIUS
  WCI - WIND CHILL INDEX
   HX - HEAT INDEX
  VSB - VISIBILITY





USA.gov is the U.S. government's official web portal to all federal, state and local government web resources and services.